Starlink 4594

operational
NORAD ID: 53638 Int'l Des: 2022-104 Owner: SPXS Country: US Constellation: starlink
LEOCIRCULAR

Über Starlink 4594

Beschreibung wird geladen...

Live-Position

3D-Globus wird geladen...

Nächste Überflüge

Höhenverlauf

Altitude vs Time

uPlot chart will show altitude changes over time

Zweizeiliger Elementsatz

1 53638U 22104BC 25354.61985877 .00000250 00000-0 33786-4 0 9992
2 53638 53.2158 218.7115 0001463 85.5179 274.5980 15.08839233184296
Epoch: 20. Dez. 2025 • Age: 8 hours

Aktueller Status

Höhe 543.6 km
Geschwindigkeit 7.59 km/s
Subsatellitenpunkt -13.38°S, 136.01°E
Startdatum 28. Aug. 2022
Alter 3.3 years
Typ internet

Technische Details

Klassifizierung Payload
Masse 300.00 kg
Trockenmasse 290.00 kg
Gesamtmasse 300.00 kg
Länge 0.20 m
Durchmesser 2.80 m
Spannweite 9.00 m
Form Box + pan
Hersteller SPXS
Bus-Typ Starlink
Phasenstatus In Orbit
Besitzer/Staat SPXS/US

Große Konstellationen

Loading constellations...